Weather History for Beatrice, NE

Change the Weather History Date:

Friday, January 7, 2011

  Actual Average Record
Temperature  
Mean Temperature 39 °F -  
Max Temperature 46 °F 25 °F 62 °F (2003)
Min Temperature 32 °F 7 °F -14 °F (1968)
Degree Days  
Heating Degree Days 26    
Moisture  
Dew Point 26 °F    
Average Humidity 62    
Maximum Humidity 76    
Minimum Humidity 41    
Precipitation  
Precipitation 0.00 in - - ()
Sea Level Pressure  
Sea Level Pressure 29.75 in    
Wind  
Wind Speed 20 mph (NW)    
Max Wind Speed 38 mph    
Max Gust Speed 48 mph    
Visibility 10 miles    
Events Snow    
Averages and records for this station are not official NWS values.
T = Trace of Precipitation, MM = Missing Value Source: NWS Daily Summary

Daily Weather History Graph

Daily Weather History Graph

Search for Another Location

Airport:

Trip Planner

Search our weather history database for the weather conditions in past years. The results will help you decide how hot, cold, wet, or windy it might be!

Date:

Astronomy

Jan. 07, 2011 Rise Set
Actual Time 7:49 AM CST 5:16 PM CST
Civil Twilight 7:19 AM CST 5:47 PM CST
Nautical Twilight 6:45 AM CST 6:21 PM CST
Astronomical Twilight 6:12 AM CST 6:54 PM CST
Moon 9:33 AM CST (1/7) 8:54 PM CST (1/7)
Length of Visible Light 10h 27m
Length of Day
9h 27m
Waxing Crescent, 11% of the Moon is Illuminated
Jan 7
Waxing Crescent
Jan 12
First Quarter
Jan 19
Full
Jan 26
Last Quarter
Feb 2
New

Hourly Weather History & Observations

Time (CST) Temp. Windchill Dew Point Humidity Pressure Visibility Wind Dir Wind Speed Gust Speed Precip Events Conditions
12:10 AM 39.2 °F 33.0 °F 30.7 °F 72% 29.66 in 10.0 mi West 9.2 mph - N/A   Overcast
12:30 AM 39.6 °F 32.5 °F 30.9 °F 71% 29.65 in 10.0 mi West 11.5 mph - N/A   Overcast
12:50 AM 38.3 °F 31.4 °F 30.4 °F 73% 29.65 in 10.0 mi West 10.4 mph - N/A   Scattered Clouds
1:10 AM 38.3 °F 30.9 °F 30.4 °F 73% 29.65 in 10.0 mi West 11.5 mph - N/A   Clear
1:30 AM 37.9 °F 30.0 °F 30.4 °F 74% 29.64 in 10.0 mi WNW 12.7 mph - N/A   Clear
1:50 AM 40.1 °F 32.0 °F 31.5 °F 71% 29.64 in 10.0 mi WNW 15.0 mph - N/A   Clear
2:10 AM 40.3 °F 33.9 °F 31.1 °F 70% 29.63 in 10.0 mi WNW 10.4 mph - N/A   Clear
2:30 AM 39.6 °F 32.5 °F 31.1 °F 72% 29.64 in 10.0 mi WNW 11.5 mph - N/A   Clear
2:50 AM 41.9 °F 32.6 °F 31.8 °F 67% 29.64 in 10.0 mi NW 21.9 mph 26.5 mph N/A   Scattered Clouds
3:10 AM 45.9 °F 36.6 °F 32.0 °F 58% 29.65 in 10.0 mi NW 28.8 mph 38.0 mph N/A   Scattered Clouds
3:30 AM 46.0 °F 36.7 °F 32.0 °F 58% 29.66 in 10.0 mi NW 29.9 mph 42.6 mph N/A   Scattered Clouds
3:50 AM 45.1 °F 36.9 °F 32.0 °F 60% 29.65 in 10.0 mi NW 21.9 mph 34.5 mph N/A   Scattered Clouds
4:10 AM 44.4 °F 34.9 °F 32.0 °F 62% 29.66 in 10.0 mi NW 27.6 mph 35.7 mph N/A   Scattered Clouds
4:30 AM 43.7 °F 33.9 °F 31.8 °F 63% 29.66 in 10.0 mi NW 27.6 mph 39.1 mph N/A   Clear
4:50 AM 42.8 °F 33.8 °F 32.0 °F 66% 29.67 in 10.0 mi NW 21.9 mph 29.9 mph N/A   Scattered Clouds
5:10 AM 42.4 °F 33.3 °F 31.8 °F 66% 29.69 in 10.0 mi NW 21.9 mph 31.1 mph N/A   Mostly Cloudy
5:30 AM 41.9 °F 33.1 °F 31.5 °F 66% 29.69 in 10.0 mi NW 19.6 mph 28.8 mph N/A   Overcast
5:50 AM 41.2 °F 31.1 °F 31.1 °F 67% 29.71 in 10.0 mi NW 24.2 mph 36.8 mph N/A   Overcast
6:10 AM 40.8 °F 29.2 °F 29.5 °F 64% 29.72 in 10.0 mi NW 32.2 mph 46.0 mph N/A   Overcast
6:30 AM 40.3 °F 28.5 °F 29.3 °F 65% 29.73 in 10.0 mi NNW 32.2 mph 39.1 mph N/A   Overcast
6:50 AM 39.7 °F 29.2 °F 28.4 °F 64% 29.73 in 10.0 mi NW 24.2 mph 34.5 mph N/A   Overcast
7:10 AM 38.3 °F 27.3 °F 26.1 °F 61% 29.74 in 10.0 mi NNW 24.2 mph 33.4 mph N/A   Mostly Cloudy
7:30 AM 36.7 °F 24.9 °F 24.3 °F 61% 29.75 in 10.0 mi NNW 25.3 mph 43.7 mph N/A   Scattered Clouds
7:50 AM 35.6 °F 23.7 °F 24.1 °F 63% 29.76 in 10.0 mi NW 24.2 mph 33.4 mph N/A   Clear
8:10 AM 34.7 °F 22.2 °F 24.6 °F 67% 29.77 in 10.0 mi NNW 25.3 mph 32.2 mph N/A   Clear
8:30 AM 34.9 °F 24.6 °F 24.4 °F 66% 29.77 in 10.0 mi NW 17.3 mph 26.5 mph N/A   Clear
8:50 AM 35.4 °F 26.4 °F 24.6 °F 65% 29.77 in 10.0 mi NW 13.8 mph - N/A   Scattered Clouds
9:10 AM 36.1 °F 26.5 °F 24.8 °F 63% 29.78 in 10.0 mi NW 16.1 mph 25.3 mph N/A   Scattered Clouds
9:30 AM 37.2 °F 26.7 °F 24.4 °F 60% 29.78 in 10.0 mi NW 20.7 mph 27.6 mph N/A   Clear
9:50 AM 37.9 °F 25.9 °F 24.3 °F 58% 29.78 in 10.0 mi NW 28.8 mph 35.7 mph N/A   Scattered Clouds
10:10 AM 38.1 °F 27.3 °F 24.1 °F 57% 29.79 in 10.0 mi NW 23.0 mph 28.8 mph N/A   Mostly Cloudy
10:30 AM 38.5 °F 25.3 °F 22.6 °F 53% 29.79 in 10.0 mi NNW 36.8 mph 41.4 mph N/A   Mostly Cloudy
10:50 AM 39.4 °F 27.9 °F 21.4 °F 49% 29.79 in 10.0 mi NNW 28.8 mph 40.3 mph N/A   Mostly Cloudy
11:10 AM 40.3 °F 29.1 °F 21.0 °F 46% 29.78 in 10.0 mi NNW 28.8 mph 40.3 mph N/A   Overcast
11:30 AM 39.2 °F 26.5 °F 21.4 °F 49% 29.79 in 10.0 mi NNW 35.7 mph 46.0 mph N/A   Overcast
11:50 AM 39.6 °F 27.0 °F 20.5 °F 46% 29.78 in 10.0 mi NW 35.7 mph 42.6 mph N/A   Overcast
12:10 PM 40.6 °F 28.1 °F 18.7 °F 41% 29.78 in 10.0 mi NNW 38.0 mph 48.3 mph N/A   Mostly Cloudy
12:30 PM 38.8 °F 25.6 °F 19.8 °F 46% 29.79 in 10.0 mi NNW 38.0 mph 43.7 mph N/A   Overcast
12:50 PM 37.0 °F 23.9 °F 20.1 °F 50% 29.79 in 10.0 mi NNW 33.4 mph 42.6 mph N/A   Overcast
1:10 PM 36.7 °F 24.0 °F 20.1 °F 51% 29.79 in 10.0 mi NNW 29.9 mph 39.1 mph N/A   Overcast
1:30 PM 36.3 °F 23.5 °F 20.3 °F 52% 29.79 in 10.0 mi NW 29.9 mph 39.1 mph N/A   Overcast
1:50 PM 35.8 °F 22.5 °F 21.4 °F 56% 29.80 in 10.0 mi NW 31.1 mph 38.0 mph N/A   Overcast
2:10 PM 36.0 °F 23.7 °F 21.6 °F 56% 29.81 in 10.0 mi NNW 26.5 mph 38.0 mph N/A   Overcast
2:30 PM 35.1 °F 21.4 °F 22.6 °F 61% 29.82 in 10.0 mi NNW 32.2 mph 36.8 mph N/A   Overcast
2:50 PM 34.7 °F 20.7 °F 21.6 °F 59% 29.83 in 10.0 mi NNW 33.4 mph 40.3 mph N/A   Overcast
3:10 PM 34.7 °F 22.2 °F 21.6 °F 59% 29.83 in 10.0 mi NW 25.3 mph 38.0 mph N/A   Overcast
3:30 PM 34.3 °F 21.8 °F 21.9 °F 60% 29.83 in 10.0 mi NNW 25.3 mph 36.8 mph N/A   Overcast
3:50 PM 33.4 °F 20.6 °F 23.0 °F 66% 29.84 in 10.0 mi NNW 25.3 mph 33.4 mph N/A   Overcast
4:10 PM 33.1 °F 20.9 °F 22.8 °F 66% 29.84 in 10.0 mi NNW 21.9 mph 29.9 mph N/A   Overcast
4:30 PM 33.4 °F 21.4 °F 22.1 °F 63% 29.84 in 10.0 mi NNW 21.9 mph 32.2 mph N/A   Overcast
4:50 PM 33.1 °F 22.6 °F 21.9 °F 64% 29.84 in 10.0 mi NW 16.1 mph 25.3 mph N/A   Overcast
5:10 PM 32.9 °F 22.4 °F 22.6 °F 66% 29.84 in 10.0 mi NW 16.1 mph 21.9 mph N/A   Overcast
5:30 PM 32.4 °F 23.0 °F 23.0 °F 68% 29.84 in 10.0 mi NW 12.7 mph - N/A   Overcast
5:50 PM 32.7 °F 22.1 °F 23.2 °F 68% 29.84 in 10.0 mi NW 16.1 mph 24.2 mph N/A   Overcast
6:10 PM 32.9 °F 22.0 °F 23.4 °F 68% 29.84 in 10.0 mi NW 17.3 mph - N/A   Overcast
6:30 PM 32.2 °F 20.7 °F 25.5 °F 76% 29.85 in 7.0 mi NNW 18.4 mph 27.6 mph N/A Snow Light Snow
6:50 PM 31.5 °F 22.9 °F 25.5 °F 79% 29.86 in 10.0 mi NNW 10.4 mph - N/A   Overcast
7:10 PM 30.9 °F 17.2 °F 23.5 °F 74% 29.87 in 10.0 mi NNW 25.3 mph 31.1 mph N/A   Overcast
7:30 PM 29.5 °F 15.0 °F 20.7 °F 70% 29.88 in 10.0 mi NNW 26.5 mph 35.7 mph N/A   Mostly Cloudy
8:10 PM 26.4 °F 12.5 °F 18.1 °F 71% 29.87 in 10.0 mi NNW 20.7 mph 27.6 mph N/A   Clear
8:30 PM 25.7 °F 9.9 °F 14.4 °F 62% 29.88 in 10.0 mi NNW 26.5 mph 36.8 mph N/A   Clear
8:50 PM 24.1 °F 8.7 °F 6.3 °F 47% 29.88 in 10.0 mi NNW 23.0 mph 31.1 mph N/A   Clear
9:10 PM 23.4 °F 8.4 °F 6.8 °F 49% 29.88 in 10.0 mi NNW 20.7 mph 29.9 mph N/A   Clear
9:30 PM 22.6 °F 7.9 °F 9.1 °F 56% 29.88 in 10.0 mi NNW 19.6 mph - N/A   Clear
9:50 PM 22.1 °F 8.5 °F 9.0 °F 57% 29.88 in 10.0 mi NNW 16.1 mph - N/A   Clear
10:10 PM 21.9 °F 8.2 °F 10.4 °F 61% 29.88 in 10.0 mi NNW 16.1 mph - N/A   Clear
10:30 PM 21.2 °F 8.3 °F 11.3 °F 66% 29.88 in 10.0 mi NW 13.8 mph - N/A   Clear
10:50 PM 21.2 °F 8.3 °F 10.8 °F 64% 29.88 in 10.0 mi NW 13.8 mph - N/A   Clear
11:10 PM 20.5 °F 8.6 °F 11.3 °F 68% 29.89 in 10.0 mi NNW 11.5 mph - N/A   Clear
11:30 PM 20.7 °F 6.6 °F 10.8 °F 66% 29.89 in 10.0 mi NNW 16.1 mph 21.9 mph N/A   Clear
11:50 PM 19.4 °F 5.5 °F 8.6 °F 63% 29.88 in 10.0 mi NNW 15.0 mph 21.9 mph N/A   Clear